Wind_Speed
40 39 38 36 33 30 29 30 31 31 30 30 31 33 35 36 37 35 32 29 27 28 26 24 22 21 22 25 27 30 29 27 27 29 32 34 32 29 28 28 30 31 28 26 24 23 24 25 25 25 25 25 26 28 31 33 34 35 35 35 35 34 33 32 31 30 29 29 29 30 34 36 36 35 34 34 33 31 29 29 30 31 32 32 32
40 39 37 35 33 34 35 37 36 35 34 34 35 37 39 39 37 33 30 29 27 26 26 24 22 22 24 27 29 31 30 29 30 32 32 32 30 28 28 28 30 32 31 28 26 26 26 26 26 26 26 26 26 26 26 28 30 32 34 36 37 36 35 35 35 34 32 30 30 31 33 35 36 36 35 34 33 31 31 30 31 32 32 33 32
40 39 37 36 37 38 39 39 36 35 36 38 39 40 41 39 36 33 31 28 27 25 24 22 23 25 27 29 30 31 30 31 32 33 32 30 29 29 29 29 30 33 33 30 27 27 26 25 25 25 26 26 25 24 22 22 24 26 29 33 37 39 39 38 37 37 35 32 31 32 33 35 36 36 36 35 33 32 32 32 32 32 33 33 33
40 39 39 39 40 40 39 37 34 35 38 40 40 39 38 36 34 32 30 28 26 26 24 23 26 28 30 30 30 31 32 32 32 32 31 31 30 30 30 30 30 32 33 31 27 26 24 23 23 24 25 24 23 22 21 20 20 21 23 26 31 36 38 38 38 37 35 33 32 32 33 35 36 36 36 35 34 32 32 32 32 32 32 32 32
42 42 42 41 41 40 38 35 35 36 38 38 37 35 34 34 32 30 28 27 28 27 26 26 28 29 29 29 30 32 32 31 31 31 31 31 31 31 30 30 30 31 31 30 28 26 24 24 25 26 26 25 23 22 21 21 21 22 22 22 24 29 34 36 36 36 34 33 32 32 34 35 36 36 37 36 34 33 32 31 31 31 31 31 31
45 44 42 40 40 39 38 37 37 36 35 35 34 33 33 33 30 28 26 27 28 28 29 29 28 28 27 29 31 31 29 28 30 32 31 31 31 31 30 29 29 29 28 28 29 29 28 28 28 27 26 27 26 25 24 22 22 23 22 22 21 23 28 33 35 35 33 32 31 32 34 35 36 36 37 36 34 33 32 32 31 31 31 30 30
45 44 42 40 40 40 40 40 38 36 36 35 34 34 33 31 28 26 25 27 29 32 32 30 28 28 30 31 30 27 25 26 29 31 31 30 30 29 30 29 27 26 26 26 27 29 30 29 29 28 27 28 28 28 27 24 23 23 22 21 20 21 23 27 30 31 32 31 30 31 33 36 36 37 38 36 34 34 34 34 33 32 31 30 30
51 49 47 44 43 44 43 41 40 39 37 36 35 35 33 30 28 27 29 32 34 35 32 30 30 32 33 31 26 25 25 26 28 30 30 29 29 29 30 29 26 25 25 25 26 27 28 28 28 28 29 29 29 30 30 27 25 24 24 22 21 20 22 23 25 27 28 29 30 30 33 36 37 38 39 36 35 36 37 36 34 32 30 29 29
57 56 54 52 49 46 46 44 43 42 39 37 36 35 32 30 30 30 31 32 33 32 30 31 33 35 34 28 24 24 26 28 30 31 30 30 29 30 31 29 26 26 26 27 26 26 27 28 29 30 31 32 31 30 29 29 28 26 25 24 22 21 21 22 23 24 25 26 28 30 32 35 37 38 38 37 37 38 37 34 32 31 30 29 29
60 59 57 55 50 47 46 46 45 44 41 40 38 35 32 30 30 31 29 28 29 31 32 33 34 34 31 27 26 28 29 31 32 32 32 31 30 31 32 30 27 27 28 29 29 28 27 28 29 30 31 32 31 28 26 27 27 27 26 25 24 23 23 24 25 25 25 25 26 29 32 34 36 38 39 39 39 37 35 34 33 32 32 32 33
57 56 54 53 50 47 45 45 44 44 42 41 39 37 34 32 30 30 30 32 34 37 38 37 35 34 32 31 32 32 32 32 32 32 32 32 31 32 33 31 29 28 30 32 33 32 31 31 30 30 30 31 30 29 27 26 27 27 27 26 24 24 25 27 27 28 28 27 27 28 31 33 35 37 39 39 38 37 36 36 35 35 36 36 36
51 52 52 51 50 48 46 44 43 42 41 40 38 37 37 35 34 33 35 39 42 44 43 40 36 36 36 36 35 33 32 32 32 32 33 33 33 34 34 33 31 31 33 35 35 35 35 35 34 32 31 31 32 31 30 29 28 29 30 29 28 27 28 28 28 31 31 30 31 31 32 33 34 36 38 39 38 38 38 38 38 39 39 39 39
47 47 47 47 46 46 45 43 41 40 40 39 38 38 37 35 35 36 37 40 43 46 45 41 37 37 38 36 33 31 32 32 32 33 34 35 35 36 35 34 33 34 35 37 37 36 36 36 37 35 34 33 34 33 32 32 30 30 32 33 34 34 32 28 26 29 31 32 33 33 34 35 35 36 37 39 39 40 40 41 41 41 42 41 40
44 44 44 43 42 41 41 40 39 39 39 39 39 40 39 38 38 38 38 39 42 45 47 45 41 39 39 37 35 34 35 35 36 37 38 37 37 37 36 36 36 37 38 39 39 38 38 37 38 37 36 36 35 35 34 33 31 30 31 32 35 37 36 33 29 28 30 32 33 34 36 38 38 38 40 42 43 43 44 44 44 43 42 42 41
40 41 42 41 40 39 39 39 39 39 40 41 42 42 42 42 42 42 41 41 42 44 48 49 45 43 42 42 41 41 41 40 40 40 40 39 39 39 38 38 38 40 41 41 41 40 39 39 39 39 39 38 36 36 35 34 32 30 29 30 33 37 38 38 37 35 34 34 35 36 38 41 41 41 43 45 46 46 45 45 45 44 43 41 40
42 41 41 41 40 39 39 39 40 40 41 42 43 42 41 42 43 43 42 41 42 43 46 47 46 43 42 42 43 43 42 42 41 41 41 41 40 39 39 39 41 43 43 42 42 41 40 40 40 41 42 40 38 37 36 35 33 30 29 28 29 33 38 40 41 40 40 38 38 39 40 42 43 44 46 47 47 47 46 46 46 45 44 43 42
45 43 41 41 40 39 39 38 38 38 39 40 40 39 39 38 38 38 37 37 39 42 43 43 42 40 39 41 42 42 41 41 40 41 42 42 41 40 41 42 44 45 43 41 41 41 41 41 42 43 44 43 41 39 37 36 34 31 29 29 28 29 34 39 42 42 42 41 41 41 43 44 45 46 47 48 48 47 46 47 49 48 46 44 43
46 44 41 40 40 38 37 36 35 35 35 36 36 35 34 33 32 32 33 35 38 40 41 40 38 37 37 38 39 39 39 39 39 40 42 42 42 43 43 44 46 45 44 42 42 42 43 43 43 44 45 45 44 41 39 37 35 32 30 30 29 28 30 35 40 43 44 43 43 44 44 45 46 47 48 48 48 47 46 47 49 48 45 43 41
45 43 40 39 39 38 36 35 34 34 34 33 33 32 31 31 31 32 33 35 37 39 39 37 36 36 36 37 37 38 38 39 39 40 41 42 43 44 44 43 43 44 44 44 44 44 45 44 45 45 45 46 45 43 41 39 36 34 32 31 30 29 29 31 35 39 43 45 46 46 46 46 47 47 47 48 48 47 46 44 44 44 42 40 39
43 42 41 40 40 38 36 35 34 33 33 33 32 31 31 32 32 34 34 35 37 37 37 35 34 34 35 37 38 39 39 40 41 41 41 41 42 43 42 41 42 42 43 44 45 46 47 47 46 46 46 47 46 43 41 40 37 35 34 32 32 31 30 30 31 33 37 42 46 48 48 47 48 48 47 47 47 46 44 41 40 40 39 38 38
42 42 41 41 41 40 39 37 36 35 34 33 33 33 33 34 34 34 34 34 35 35 35 34 34 35 37 39 40 41 42 42 42 41 40 39 40 41 40 41 42 42 42 43 44 46 48 47 46 46 47 47 46 43 41 40 38 36 34 33 33 32 32 32 31 31 32 36 41 45 47 48 48 48 47 47 47 46 45 43 42 42 41 40 40
40 41 41 41 42 42 41 40 38 37 36 35 35 36 36 35 35 34 33 32 33 34 34 33 34 35 37 40 41 42 43 43 42 41 39 39 40 40 40 40 41 41 41 42 43 44 45 45 46 46 47 46 44 42 41 40 38 36 35 34 34 34 33 33 33 33 33 33 35 39 44 47 48 49 48 48 48 48 49 48 47 47 46 45 45
39 41 41 41 41 41 40 39 38 38 37 38 38 38 37 36 34 33 31 31 31 33 34 35 35 36 38 40 42 42 43 42 41 40 40 40 41 40 40 40 40 40 40 41 42 43 44 45 45 45 44 43 41 40 39 38 37 35 34 34 34 34 34 34 34 34 34 35 35 36 39 43 47 50 51 52 52 52 52 52 51 51 51 51 51
40 40 41 41 41 40 40 39 39 39 39 39 39 39 38 37 35 33 32 31 31 32 34 36 37 38 39 40 42 42 42 41 40 41 41 42 42 42 41 41 41 40 39 40 41 42 43 43 42 41 40 39 39 39 38 37 36 35 35 34 34 34 35 35 35 35 34 35 36 37 37 39 42 46 50 53 55 56 57 57 56 56 56 56 56
42 42 41 41 41 41 41 41 41 41 41 40 39 39 38 37 35 34 33 33 32 33 34 35 36 37 39 40 41 42 42 41 41 42 42 43 43 43 43 42 42 41 39 39 40 41 41 40 39 38 38 38 39 39 39 38 38 37 37 37 37 36 37 37 37 37 36 36 36 38 39 40 40 42 45 48 51 54 56 58 59 60 60 61 61
44 43 42 41 41 39 39 40 40 40 40 40 38 37 37 36 36 35 35 35 34 35 36 37 38 39 40 41 42 43 42 43 44 44 43 43 44 45 44 44 43 42 39 38 39 41 41 39 38 38 38 39 40 40 40 40 40 39 39 39 40 39 39 39 39 40 40 39 39 39 40 41 42 42 44 45 47 49 51 53 55 56 57 58 59
46 46 45 43 42 41 40 39 38 38 38 37 36 36 36 36 37 37 37 37 36 37 38 39 40 41 42 43 44 43 44 46 47 46 44 43 44 45 45 45 45 44 40 38 38 40 41 40 40 39 40 40 41 41 42 41 40 40 40 41 41 42 42 42 42 42 42 43 43 43 43 43 43 43 43 45 46 48 50 51 53 53 54 54 55
46 47 47 46 45 44 44 42 40 39 38 37 37 37 38 38 39 39 39 39 39 40 40 41 41 42 44 44 45 46 48 49 48 46 43 43 44 46 47 47 46 45 43 40 39 39 40 41 42 42 42 42 42 43 42 42 41 41 41 41 42 43 43 44 44 44 44 45 45 46 46 46 46 46 45 44 45 46 48 50 52 53 55 56 57
46 48 48 48 47 46 46 45 44 43 42 41 41 41 41 41 41 42 43 43 44 44 44 44 44 44 45 46 47 49 49 48 46 45 44 44 45 47 47 46 46 46 45 43 42 41 41 42 43 43 44 44 44 44 43 42 42 42 42 42 42 43 43 44 45 45 46 47 47 48 50 50 50 50 50 49 49 49 49 50 50 51 52 54 56
45 47 48 49 49 48 47 46 45 44 44 43 43 43 43 44 44 45 46 47 47 47 47 47 47 47 48 49 49 48 47 45 45 45 45 46 47 47 46 46 46 47 46 46 46 46 45 44 44 44 45 45 45 45 45 43 43 43 43 42 43 43 43 44 45 46 47 48 49 50 51 52 53 54 54 55 55 55 55 54 53 53 52 52 53
42 45 46 47 47 47 47 46 45 44 44 44 44 44 45 45 47 47 48 49 49 49 49 49 49 49 49 49 48 47 46 46 46 46 47 48 48 48 47 47 48 48 49 49 49 49 48 47 46 45 45 46 46 46 46 45 44 44 44 44 44 44 44 45 46 47 48 49 50 51 52 53 54 55 56 57 57 58 57 57 56 56 55 54 53
43 45 46 47 47 47 46 46 46 46 46 46 46 46 46 47 48 48 49 50 50 50 50 50 50 50 49 49 48 48 48 48 49 49 50 50 49 49 48 50 51 51 51 51 51 50 49 48 47 46 46 47 46 46 46 46 46 45 44 44 44 44 46 48 49 49 50 52 52 53 54 54 54 55 56 57 57 57 57 57 57 57 57 57 56
47 46 47 48 48 49 49 49 49 49 49 49 49 48 48 49 49 49 50 50 50 50 50 50 50 50 50 50 50 50 50 51 51 51 51 51 51 51 51 53 54 53 52 53 52 50 49 48 47 46 47 47 47 46 46 46 46 46 46 44 44 45 47 48 49 51 52 54 54 55 55 55 54 54 55 56 56 57 57 58 58 58 58 59 59
50 49 49 49 49 50 50 51 51 51 51 50 50 50 50 50 50 50 50 50 50 50 50 51 51 51 52 52 52 52 52 52 52 52 52 52 53 53 55 55 54 52 52 52 52 50 49 48 47 47 47 47 48 48 48 47 46 47 46 45 44 45 46 48 50 51 52 53 54 54 54 54 53 53 53 54 54 55 56 56 57 58 59 59 59
52 51 50 50 50 50 50 50 50 51 51 51 50 50 50 50 50 50 51 51 51 52 52 53 53 54 54 54 54 54 54 54 54 54 54 54 54 55 56 55 54 52 51 50 49 48 48 48 48 48 48 48 49 50 50 49 49 48 46 45 46 46 46 47 49 50 52 52 53 53 53 52 51 51 52 52 53 53 53 54 55 56 57 58 58
52 51 51 51 51 51 51 50 50 50 51 51 51 51 52 52 52 52 53 53 53 53 54 55 55 56 56 57 57 57 57 57 56 56 55 55 55 54 54 54 53 52 50 48 47 47 48 48 48 49 49 50 50 51 51 51 51 50 49 48 49 49 49 49 50 51 52 52 52 52 51 50 50 49 50 51 51 52 52 53 53 54 54 55 56
50 51 51 51 51 51 51 51 51 51 52 52 52 52 53 53 53 54 54 54 55 55 56 57 58 59 59 60 60 60 59 58 57 56 56 56 56 54 53 53 54 53 50 47 46 47 49 49 49 49 50 51 51 52 52 52 52 53 53 53 53 53 53 53 53 53 53 52 52 50 49 48 48 48 48 49 49 50 51 51 52 52 53 53 54
50 50 50 50 51 51 52 52 53 53 54 54 54 54 55 55 55 55 56 56 56 57 58 58 59 60 61 61 61 60 59 58 57 56 57 57 57 56 54 53 53 52 51 50 49 49 50 51 51 50 51 52 53 53 53 53 53 54 55 56 56 56 56 55 55 54 53 53 52 50 49 49 49 48 48 47 47 48 49 50 50 51 52 53 53
51 51 51 51 52 53 53 53 53 54 54 54 55 55 55 56 56 56 57 57 57 58 58 59 59 60 60 60 60 59 58 57 57 56 56 57 58 58 56 54 53 52 52 52 52 52 52 52 52 52 52 53 54 55 55 55 55 56 56 56 57 58 58 57 57 56 55 54 53 51 51 51 51 51 50 49 48 49 49 49 50 50 51 52 53
53 53 53 53 54 54 54 54 54 54 54 54 55 55 56 56 57 57 58 58 59 59 59 60 60 60 59 58 58 58 58 57 57 57 56 57 58 58 57 56 55 54 53 53 53 54 54 54 54 54 54 54 54 55 56 57 57 58 58 57 58 59 59 58 57 56 55 54 52 52 52 52 52 51 51 51 51 51 51 51 51 51 52 52 53
54 54 55 56 56 56 56 56 56 55 55 55 55 56 57 57 58 59 59 60 60 61 61 61 60 59 57 56 56 57 57 57 57 57 57 57 57 58 58 58 58 57 56 55 54 54 55 56 57 57 57 56 56 56 56 57 59 60 60 59 59 59 58 57 56 55 54 52 51 51 52 51 51 51 51 51 52 52 52 53 53 54 55 55 56
55 56 57 58 58 58 58 57 57 57 58 58 57 56 57 57 59 59 60 60 61 61 61 61 60 59 58 58 57 57 57 57 57 58 58 59 59 59 60 60 60 60 59 58 56 55 55 57 57 58 57 57 57 58 58 58 59 60 60 60 59 58 56 55 53 53 53 52 51 52 53 52 51 52 53 54 54 54 54 54 55 56 58 59 60
57 59 59 59 59 59 59 60 60 61 62 61 61 60 58 59 60 61 61 61 61 61 61 61 61 60 59 59 58 58 58 59 60 61 62 62 62 62 61 61 60 60 59 59 58 57 56 56 56 57 57 57 58 59 59 58 58 59 59 58 57 55 53 52 51 51 52 52 53 54 55 54 54 54 55 57 58 58 57 57 57 58 60 62 63
63 63 63 62 61 61 61 62 63 64 65 65 65 64 63 63 64 64 64 64 64 64 64 63 62 61 59 60 60 62 63 64 65 65 64 64 63 62 62 61 61 61 61 60 59 58 57 55 56 57 58 58 58 58 58 59 59 58 57 55 54 51 50 49 49 50 51 52 54 55 55 56 56 56 57 59 60 61 61 61 61 61 62 64 66
71 70 70 69 68 66 65 65 65 66 67 68 68 68 68 68 68 67 66 67 67 67 66 65 63 62 62 64 65 66 67 67 66 65 65 65 66 66 65 64 63 63 62 60 59 59 58 57 57 57 58 59 60 60 59 58 57 57 55 54 51 49 49 48 48 48 49 50 52 53 54 55 57 58 59 60 61 62 62 63 64 64 65 66 67
73 72 72 72 71 70 69 69 69 69 70 70 71 71 72 72 71 69 67 66 66 66 65 65 65 65 66 67 67 67 68 67 67 66 67 68 68 68 67 66 64 64 63 62 61 61 62 61 61 60 61 62 62 61 60 58 56 55 54 53 51 50 49 49 48 48 48 49 49 51 52 54 56 57 59 60 62 63 63 64 65 66 66 67 68
73 72 72 71 71 71 71 71 70 71 71 71 72 72 73 73 72 70 68 67 66 66 66 67 67 68 68 67 67 67 67 67 66 66 65 65 65 66 67 68 68 68 68 68 67 66 66 66 66 66 66 66 64 62 60 58 56 55 53 53 52 51 50 50 49 49 49 49 49 50 52 53 54 56 58 60 62 64 65 66 66 66 66 66 67
73 72 72 72 72 72 72 71 71 71 71 71 71 72 72 72 71 70 70 69 69 69 69 69 70 70 69 69 68 68 67 67 66 66 65 63 64 67 70 70 70 71 73 73 72 71 70 70 70 70 70 69 67 65 63 60 58 55 53 52 52 51 51 51 52 52 51 50 50 52 52 53 54 56 59 61 64 65 67 67 67 65 64 64 66
74 73 73 73 73 73 72 72 72 72 72 72 72 72 72 72 72 71 71 70 70 71 72 72 72 72 72 71 68 67 67 68 69 70 69 68 69 71 72 72 73 74 76 77 77 76 76 75 74 73 72 71 69 67 65 63 60 57 55 54 53 52 52 53 53 54 53 51 51 52 53 54 56 58 60 63 65 66 67 67 65 63 62 63 64
75 75 75 74 74 74 73 73 73 72 73 73 73 73 73 73 73 73 73 72 71 71 73 75 75 75 75 74 72 69 71 73 73 73 74 74 74 75 76 78 80 80 80 81 81 81 80 79 76 74 73 71 69 67 65 62 60 58 56 55 55 55 55 55 55 55 54 53 53 53 54 55 57 59 60 62 64 66 66 65 64 63 63 63 64
75 76 76 76 75 75 75 75 74 74 74 75 75 76 76 76 76 76 75 75 75 75 76 77 77 77 76 76 76 75 76 78 78 77 77 77 77 78 80 81 83 84 84 84 84 84 82 79 75 72 69 68 66 64 62 60 59 58 57 56 56 56 56 56 56 56 56 55 56 56 56 57 59 60 61 62 63 65 66 66 66 66 66 67 68
Wind_Direction
288 288 289 290 288 286 288 292 291 288 287 284 284 286 291 294 290 284 281 282 284 280 265 255 270 282 291 302 309 312 310 305 299 300 308 309 300 297 301 306 316 320 314 310 306 298 293 290 285 282 280 278 273 268 264 262 262 261 261 261 261 261 261 260 260 261 264 266 265 257 250 244 241 241 243 243 241 242 246 248 249 250 251 252 253
285 284 284 284 284 285 288 291 289 285 285 285 288 292 294 295 292 283 276 277 283 274 258 259 274 284 294 302 306 307 307 307 303 298 302 302 293 294 300 304 315 320 314 307 304 301 298 294 290 286 284 282 278 272 267 264 261 259 257 255 255 255 255 256 258 260 261 262 261 256 250 245 242 241 242 241 239 242 247 249 250 251 251 252 252
284 283 281 280 281 284 286 288 286 284 286 287 291 293 295 295 290 281 274 275 277 263 254 266 278 287 295 301 304 303 304 306 302 296 296 293 289 292 299 305 314 320 315 306 303 303 303 300 295 290 287 284 281 278 275 271 266 263 260 257 253 251 251 253 255 257 257 256 254 252 249 245 242 242 241 238 238 243 247 249 251 252 252 251 251
283 281 280 280 282 285 286 286 283 284 287 289 292 293 295 294 288 281 276 274 267 253 255 271 279 288 295 298 301 301 303 303 296 291 290 287 289 294 298 305 312 319 315 306 302 303 304 303 300 297 293 289 286 284 285 282 276 273 271 267 261 254 249 250 251 251 252 250 247 246 245 243 242 242 239 235 237 241 243 245 248 249 250 251 251
283 283 283 284 285 287 287 284 281 284 289 290 290 291 292 291 287 282 276 269 259 252 262 276 283 291 294 295 299 301 304 301 289 285 285 286 291 294 298 305 311 317 316 308 304 304 302 301 302 302 299 296 293 292 292 289 283 281 280 276 272 261 250 246 247 248 247 245 243 242 242 240 240 240 236 234 238 240 240 242 244 245 247 248 250
284 284 285 286 286 286 286 283 282 286 291 291 288 290 291 291 288 280 270 262 258 261 270 280 288 292 290 292 297 301 303 295 283 282 285 290 295 297 300 308 313 315 316 311 307 306 305 303 303 302 300 298 296 295 293 289 281 279 282 279 275 268 255 249 250 250 248 245 242 240 239 239 240 238 235 235 238 239 239 240 241 242 243 245 247
280 281 281 280 281 282 283 282 283 288 294 292 289 290 292 293 288 276 264 260 264 271 277 283 288 287 285 291 294 294 292 283 279 283 290 296 299 301 308 313 313 311 311 308 305 304 303 301 299 296 296 296 295 295 294 289 282 276 278 279 273 268 260 255 254 253 251 248 244 240 238 238 239 237 236 238 240 239 240 240 240 241 243 245 246
275 278 277 277 277 278 279 280 282 287 291 288 287 290 292 292 285 272 263 263 267 273 278 283 284 282 286 289 285 281 279 275 277 285 292 295 296 301 310 311 307 305 304 302 301 301 301 300 296 291 289 290 291 294 293 290 286 279 274 275 272 266 260 256 253 253 253 250 246 242 240 239 239 238 238 241 242 241 240 240 241 243 245 247 248
274 277 279 279 277 275 275 277 280 284 286 283 284 287 287 284 277 267 262 264 268 271 276 280 280 283 288 284 270 269 272 273 279 285 289 290 290 299 306 305 302 303 301 298 297 300 303 303 299 293 289 286 287 289 290 288 286 282 274 270 270 266 260 255 251 250 252 250 246 243 242 242 241 240 241 244 244 242 242 241 241 243 245 248 251
275 279 280 280 278 274 273 276 278 280 282 281 282 282 279 274 269 263 260 261 263 268 275 280 281 283 284 277 267 268 273 277 282 284 285 284 285 296 302 301 299 302 301 297 293 293 299 303 301 297 292 287 285 285 284 283 283 281 276 271 267 264 259 255 249 246 246 246 245 244 243 243 243 243 244 246 245 244 242 240 241 245 249 253 256
277 279 279 278 278 275 274 276 278 279 280 280 279 278 275 269 262 257 257 261 266 274 280 282 281 278 274 272 272 274 278 282 282 280 278 278 283 294 300 298 297 299 301 298 293 289 292 299 300 298 294 289 283 281 279 278 277 274 272 270 267 263 258 254 251 246 243 243 242 242 243 243 245 246 247 248 246 243 240 241 247 252 256 260 262
277 277 278 278 278 277 277 277 278 278 279 278 277 277 276 272 265 259 259 264 270 275 279 280 278 273 269 271 274 276 278 281 278 274 273 277 283 293 298 296 294 295 297 298 295 289 288 295 300 298 295 292 286 281 277 276 275 268 263 262 262 261 258 256 255 251 247 246 245 244 243 243 245 247 248 247 244 242 242 248 254 259 262 265 266
277 277 277 277 277 277 277 276 276 276 275 275 275 276 276 275 273 270 268 268 270 272 274 274 272 268 267 269 271 270 272 274 272 270 273 279 285 293 295 293 292 293 295 296 294 289 286 291 298 298 297 296 292 287 281 276 276 271 263 258 257 258 257 254 255 255 252 250 250 249 248 247 246 247 246 244 244 246 250 256 260 262 264 266 267
278 278 277 276 276 276 275 275 273 272 270 270 273 273 272 273 276 277 276 274 271 270 270 269 267 264 263 264 264 263 265 269 270 272 276 280 287 292 292 291 292 293 294 295 292 286 283 289 296 298 298 297 294 291 287 280 276 274 267 259 256 255 255 250 246 248 251 251 252 251 250 250 249 248 247 247 247 251 255 259 261 263 264 265 265
282 281 278 276 274 273 273 273 272 271 271 271 273 273 273 273 276 278 278 276 274 270 268 267 266 264 262 260 261 262 264 267 271 274 277 281 287 290 291 291 292 293 294 294 290 284 282 287 293 295 295 296 294 292 290 284 278 274 269 263 257 254 254 252 247 247 249 251 251 251 250 250 250 250 251 252 252 254 257 259 261 262 263 263 262
283 284 281 276 273 271 271 271 272 274 275 275 276 277 276 276 276 277 277 277 275 272 269 267 265 264 261 259 260 261 265 269 272 275 279 284 288 289 290 291 292 293 294 291 288 285 285 287 289 291 293 294 293 291 291 288 281 274 269 265 261 256 253 253 252 251 252 253 253 253 252 252 252 252 253 255 256 257 259 260 260 261 261 261 260
280 283 281 276 272 270 270 272 274 276 277 278 277 276 276 276 276 276 277 277 276 274 271 268 264 260 258 257 259 262 265 268 271 276 282 286 287 289 290 291 291 291 290 288 286 285 285 286 286 287 290 291 291 290 291 290 283 274 269 264 262 260 256 254 254 254 255 255 256 256 256 256 256 256 257 259 260 261 262 262 262 261 261 261 259
278 280 279 274 270 269 269 272 275 278 279 278 277 275 275 276 278 280 281 281 278 275 271 267 262 256 253 257 261 263 264 267 273 279 284 286 287 289 289 289 289 289 288 286 284 283 283 284 285 286 288 288 290 290 290 290 284 274 269 265 261 260 258 257 256 255 255 255 256 257 258 259 260 260 262 262 262 262 263 263 264 264 263 260 258
276 276 275 272 268 267 268 272 276 279 279 278 277 275 276 278 281 283 283 282 279 274 269 266 261 256 254 258 262 263 265 271 277 281 283 285 287 288 288 288 289 289 289 286 284 283 282 282 284 285 286 286 289 290 288 289 285 276 270 266 262 260 259 259 258 257 255 254 255 256 258 259 260 261 261 262 263 262 261 262 264 266 265 261 259
274 274 273 270 266 264 268 273 276 277 276 275 275 274 276 280 282 283 282 280 277 271 267 264 261 257 258 259 260 263 270 276 278 279 280 284 287 288 288 289 291 291 291 288 285 282 282 281 283 284 285 286 289 289 287 287 285 278 272 269 265 263 261 260 260 260 258 256 255 255 257 258 259 260 260 260 260 260 259 258 259 263 264 261 258
273 272 271 268 264 263 267 273 275 274 273 272 273 275 277 279 280 280 279 277 274 268 265 263 261 259 258 258 262 268 273 276 276 277 280 285 288 288 288 292 296 295 293 290 287 283 282 281 281 283 285 287 290 289 287 287 284 277 272 270 268 266 263 260 259 259 260 260 259 256 255 255 257 258 258 257 257 256 255 253 251 253 255 255 253
270 268 267 266 265 264 268 273 273 272 271 271 274 276 278 278 278 277 276 274 271 266 261 260 259 258 258 260 265 270 273 274 275 277 281 286 288 285 286 294 300 300 296 293 289 285 283 280 280 282 285 288 289 288 287 286 282 277 273 271 269 268 266 264 263 261 260 260 261 260 257 254 253 254 254 253 253 253 253 253 251 250 250 250 250
268 266 265 266 266 267 269 271 271 270 271 274 277 278 277 277 276 274 272 270 269 266 262 259 258 259 261 264 267 269 271 273 275 278 283 287 286 281 284 293 299 301 299 296 291 287 284 282 282 284 286 287 288 287 287 285 282 278 274 273 272 270 269 267 266 266 265 264 263 263 262 258 254 252 252 252 252 253 253 254 254 253 252 251 250
267 266 265 266 267 268 269 270 270 269 271 275 277 277 275 274 273 271 270 268 267 266 265 263 263 263 265 266 268 270 272 273 275 279 284 287 283 278 282 290 296 300 301 298 294 288 285 284 283 284 286 287 288 287 286 286 284 280 277 275 275 274 272 270 267 267 268 269 269 268 267 265 260 256 254 254 254 255 256 257 257 257 256 255 254
268 268 267 267 268 268 268 269 269 269 271 273 274 273 272 272 271 269 268 266 265 265 265 265 265 265 267 268 269 270 271 273 276 281 285 285 280 277 281 289 294 299 301 299 295 290 287 285 284 285 286 287 289 288 288 286 284 282 280 278 277 276 275 273 271 268 266 267 269 269 269 269 267 263 260 258 257 257 258 260 261 261 261 261 260
269 269 268 269 269 269 269 268 268 269 269 270 269 269 269 270 270 269 268 266 265 265 265 265 265 266 267 267 268 269 270 274 279 282 283 281 278 277 282 288 292 297 299 298 295 291 289 288 286 286 286 288 289 289 289 287 285 283 282 280 279 278 277 276 274 271 268 267 266 267 267 267 267 267 266 264 263 262 261 261 262 263 263 264 264
268 268 268 268 267 268 269 270 269 269 267 267 267 267 268 268 268 269 268 267 267 266 266 267 267 267 267 267 267 268 271 277 281 282 280 278 277 278 282 286 290 294 297 296 294 291 289 288 287 286 287 288 290 290 289 287 285 283 282 281 280 279 278 277 275 273 270 268 266 265 265 265 265 265 265 266 266 266 266 265 265 265 264 264 264
268 268 268 268 268 269 270 270 271 270 268 268 268 269 269 269 269 269 269 269 269 268 268 268 268 268 268 267 267 269 273 278 280 280 279 278 278 279 282 285 288 293 295 293 292 291 288 286 286 286 286 287 290 291 289 287 285 284 283 283 282 281 280 279 277 275 272 269 267 264 263 262 262 262 262 263 264 266 267 267 268 268 267 267 266
268 268 268 269 269 270 271 271 271 270 269 270 270 270 270 270 269 269 270 270 270 270 269 269 268 268 268 268 269 272 275 277 278 279 279 279 279 280 282 285 288 292 293 292 292 292 289 286 285 285 285 286 288 290 289 286 285 285 285 285 284 284 283 282 280 278 275 273 270 266 264 263 261 260 260 261 262 264 266 267 267 268 268 268 268
269 269 269 270 270 271 271 271 271 271 270 270 271 271 271 271 271 270 270 271 271 271 271 270 270 270 270 270 272 274 275 276 278 279 279 279 280 283 285 287 289 291 291 291 292 292 291 287 285 284 285 285 286 289 289 286 285 285 286 287 287 287 287 285 283 281 279 276 273 271 268 266 265 263 262 262 263 265 266 267 267 266 266 267 268
271 271 271 271 271 271 270 270 270 270 271 271 272 272 272 273 272 272 272 271 271 271 272 272 272 272 272 272 274 275 275 277 279 280 280 280 282 285 288 290 291 290 290 290 291 291 290 287 284 283 284 283 284 287 288 285 284 285 286 288 289 289 290 289 287 284 282 279 277 274 272 270 269 267 266 266 266 266 267 267 266 265 265 265 266
275 273 272 271 270 270 269 270 270 270 271 272 272 273 273 273 273 273 273 273 273 272 273 273 273 274 274 275 276 276 277 279 280 281 281 280 281 283 287 290 291 290 290 290 290 290 288 285 283 283 283 282 282 284 286 284 282 283 284 287 289 290 290 289 288 287 285 283 280 278 276 274 273 271 270 269 268 268 267 267 267 266 265 265 266
276 274 272 271 270 270 270 271 272 272 272 273 273 273 273 273 273 274 274 274 274 274 275 275 276 277 277 277 278 278 279 280 281 281 281 280 280 281 285 288 289 288 288 289 290 288 285 283 282 281 281 281 281 282 283 283 282 281 282 285 287 287 286 285 285 285 284 283 283 281 280 278 276 274 273 271 270 269 268 267 266 266 265 265 266
274 273 272 271 271 271 271 272 273 273 273 273 273 273 273 273 273 274 274 274 275 276 276 277 278 278 279 279 279 280 281 281 282 282 282 281 281 282 284 286 286 285 286 287 288 286 283 282 281 280 280 280 281 282 282 282 281 280 281 283 284 284 284 284 284 284 283 283 282 282 282 281 279 277 275 273 271 270 269 268 267 266 265 265 265
273 272 272 272 272 272 272 272 272 273 273 273 273 273 273 273 274 274 275 275 276 276 277 278 279 280 280 281 281 282 282 283 283 283 283 282 282 283 284 284 283 283 284 284 284 283 281 280 280 280 280 280 280 282 283 284 284 283 283 284 284 284 285 286 286 286 285 284 283 282 282 282 280 278 277 275 274 273 271 270 269 267 266 266 265
273 273 273 273 273 274 274 274 274 274 274 275 275 276 276 277 278 278 278 279 279 279 280 281 281 282 282 283 283 284 284 284 284 284 283 283 283 283 284 284 284 284 283 282 281 280 280 280 280 280 280 280 280 281 283 285 286 287 288 288 287 288 289 289 288 288 287 286 285 284 282 281 280 279 277 276 275 274 273 272 271 270 268 267 266
274 273 273 273 273 273 273 273 272 273 273 274 275 275 276 277 278 279 279 280 280 281 281 282 282 283 283 284 284 284 285 284 284 284 284 284 285 285 284 285 286 286 285 282 280 280 280 280 280 280 280 281 281 282 284 286 288 289 290 289 289 289 290 290 289 288 286 285 285 283 281 280 280 278 277 276 274 273 273 272 271 271 270 269 267
273 272 272 272 272 272 272 272 272 272 273 273 274 274 275 276 276 277 277 278 278 279 280 281 282 283 284 284 284 284 284 284 284 284 284 285 286 287 287 286 287 287 286 284 282 280 280 280 280 280 280 281 282 284 285 287 288 288 287 287 288 288 289 289 287 286 285 283 282 280 278 279 278 276 274 273 272 272 272 271 271 270 270 269 268
270 270 271 271 271 272 272 273 274 274 274 275 275 275 276 277 277 278 278 278 278 279 280 281 283 284 284 284 284 283 283 283 283 283 284 285 286 287 287 286 285 284 284 283 283 282 281 280 280 280 281 282 284 285 286 287 287 286 285 285 286 287 288 288 287 286 285 284 281 279 278 279 278 275 273 271 270 269 269 269 269 270 270 269 269
268 269 270 270 272 273 274 274 274 275 275 276 277 277 277 277 278 278 279 279 280 281 282 283 285 285 285 284 283 282 281 281 281 281 281 282 284 284 285 285 284 284 283 283 283 283 282 282 282 283 284 284 285 285 285 286 286 285 285 284 284 285 286 286 285 284 283 282 280 279 280 282 281 279 277 275 274 272 271 270 269 268 268 268 268
269 269 270 271 272 273 274 274 274 274 274 275 276 277 278 279 279 279 280 280 281 282 284 285 285 284 284 283 282 281 280 280 280 281 281 281 282 284 284 284 284 283 283 282 282 282 282 283 284 285 285 286 286 286 286 286 286 286 285 284 285 285 285 284 282 281 279 278 277 276 278 281 282 281 280 279 278 277 276 275 274 272 270 269 267
270 270 271 272 272 273 274 273 273 273 273 273 275 276 279 280 280 280 281 282 282 283 284 284 284 283 283 282 281 280 280 280 281 282 283 283 283 283 283 283 283 283 282 282 281 281 281 282 284 284 285 286 286 287 288 288 288 287 286 285 285 285 283 282 280 278 276 274 273 273 274 277 278 279 279 278 277 277 276 276 276 276 275 273 271
272 272 272 272 272 272 272 272 272 272 272 273 274 275 277 279 279 280 280 281 282 282 282 283 283 284 283 282 281 280 280 281 282 284 284 284 283 282 282 281 281 281 281 281 282 282 282 283 284 284 284 285 286 287 288 289 288 287 286 285 284 283 281 280 278 277 274 272 270 270 272 274 274 275 276 276 276 276 275 275 275 275 275 275 274
274 275 274 273 273 273 272 272 272 272 272 272 273 274 276 278 280 280 280 280 281 281 282 282 283 283 282 282 281 282 283 284 285 286 285 284 283 282 281 281 280 279 279 280 280 281 282 282 283 283 284 285 287 288 289 289 288 287 286 284 283 282 282 281 279 277 275 272 269 269 271 273 273 273 274 274 274 274 274 274 273 272 272 273 273
275 275 274 274 274 274 272 272 272 272 272 272 273 274 276 278 280 281 281 281 282 282 282 283 282 282 282 282 283 283 285 285 286 285 285 284 283 283 282 280 279 279 279 279 279 280 281 283 283 284 285 287 289 290 290 290 289 287 285 284 284 284 284 282 281 279 277 274 271 271 271 272 272 272 273 272 272 273 273 273 272 272 272 272 272
273 273 273 273 274 273 273 272 272 272 272 272 273 275 276 277 279 280 280 280 281 282 282 282 282 282 282 283 283 284 284 284 284 284 284 284 285 285 284 283 282 282 282 283 282 283 285 286 287 287 289 290 291 292 291 291 288 286 284 284 285 285 284 283 281 280 278 276 274 273 271 271 271 273 273 273 273 273 273 273 273 272 273 273 274
272 272 271 272 272 272 273 273 273 273 273 274 274 276 277 278 278 279 279 279 279 279 279 279 279 280 280 281 281 281 281 282 281 281 282 283 284 284 284 285 286 286 286 287 287 287 288 289 290 290 291 292 293 293 292 290 288 286 285 285 286 286 284 283 282 281 280 279 277 276 274 274 276 277 278 278 278 277 276 275 274 274 275 276 276
272 272 272 271 271 271 272 272 273 273 274 275 275 276 277 278 279 279 279 280 279 279 279 278 278 278 278 279 279 279 278 277 276 276 277 278 279 280 281 283 284 284 285 286 287 288 288 289 289 290 291 293 293 293 292 291 289 287 286 287 287 286 285 283 283 282 281 281 280 279 278 279 280 281 281 281 280 280 278 277 276 276 277 278 278
271 271 271 271 271 271 272 272 273 273 274 275 276 276 277 277 278 279 279 279 279 279 279 279 278 278 278 278 278 277 276 274 273 272 273 273 273 276 278 279 279 279 281 283 284 285 286 287 288 289 290 291 291 291 290 289 288 288 288 288 288 287 286 284 284 283 282 282 282 281 281 282 282 282 282 282 281 281 280 280 279 278 278 278 277
271 271 271 272 272 273 273 273 274 274 275 275 276 276 276 277 277 277 277 277 277 277 277 278 278 278 278 278 277 275 274 274 273 273 273 272 272 272 273 275 276 277 278 279 280 281 283 284 286 287 287 287 287 286 286 285 285 286 287 287 287 286 285 285 285 285 285 285 285 284 284 284 283 283 283 283 283 283 283 283 283 281 280 279 278
271 272 273 274 274 274 275 275 275 275 275 275 276 276 276 276 276 277 277 277 276 276 276 276 277 277 277 276 275 274 272 273 273 273 273 272 272 271 271 273 274 275 276 277 278 279 281 282 284 284 284 284 283 283 282 282 282 283 284 285 285 284 284 285 286 287 287 287 287 287 286 286 285 285 285 285 285 286 286 286 285 284 283 282 281
Height
10742 10742 10742 10743 10743 10743 10743 10743 10743 10742 10741 10741 10740 10739 10739 10740 10740 10739 10738 10737 10739 10739 10739 10739 10738 10738 10737 10737 10737 10737 10736 10735 10734 10733 10731 10729 10726 10725 10724 10723 10721 10720 10719 10717 10716 10715 10715 10714 10714 10714 10714 10714 10713 10713 10713 10713 10713 10713 10714 10715 10715 10715 10716 10717 10717 10718 10719 10719 10720 10720 10721 10722 10723 10724 10725 10726 10727 10727 10728 10728 10729 10729 10730 10730 10731
10739 10739 10740 10740 10741 10741 10741 10741 10741 10740 10739 10737 10737 10736 10736 10736 10736 10735 10733 10734 10736 10736 10736 10736 10736 10736 10736 10735 10735 10735 10734 10733 10732 10731 10729 10726 10723 10722 10722 10721 10720 10718 10716 10715 10713 10712 10711 10711 10711 10711 10711 10710 10710 10710 10709 10709 10709 10709 10710 10710 10711 10711 10712 10712 10713 10713 10714 10715 10716 10717 10718 10719 10720 10721 10722 10723 10724 10724 10725 10726 10726 10727 10727 10727 10728
10736 10736 10737 10738 10738 10738 10739 10739 10738 10737 10736 10734 10734 10733 10733 10732 10731 10730 10729 10731 10733 10733 10733 10734 10734 10733 10733 10733 10734 10734 10733 10731 10730 10727 10725 10722 10720 10720 10721 10720 10718 10716 10713 10712 10711 10709 10708 10708 10708 10708 10708 10707 10707 10706 10706 10706 10706 10706 10706 10706 10706 10707 10707 10708 10708 10709 10710 10711 10712 10713 10714 10715 10716 10718 10719 10720 10720 10721 10722 10722 10723 10723 10724 10724 10725
10732 10732 10733 10734 10734 10734 10735 10735 10735 10734 10732 10731 10731 10730 10729 10728 10727 10726 10726 10728 10729 10729 10730 10730 10731 10730 10730 10731 10732 10732 10731 10729 10726 10723 10720 10718 10718 10719 10719 10717 10715 10713 10711 10709 10708 10707 10706 10706 10705 10705 10705 10704 10704 10703 10703 10703 10703 10703 10703 10703 10703 10702 10703 10703 10704 10705 10706 10707 10708 10709 10710 10711 10713 10714 10715 10716 10717 10718 10718 10719 10719 10720 10720 10721 10721
10728 10728 10729 10730 10730 10730 10730 10731 10731 10730 10729 10728 10728 10727 10726 10725 10724 10723 10723 10724 10725 10726 10727 10727 10727 10727 10727 10727 10729 10729 10728 10725 10722 10718 10716 10716 10717 10718 10716 10714 10713 10711 10710 10708 10706 10706 10705 10704 10704 10703 10703 10702 10701 10701 10701 10700 10700 10700 10700 10700 10699 10699 10699 10700 10700 10701 10702 10703 10704 10705 10706 10708 10709 10710 10711 10712 10713 10714 10715 10715 10716 10716 10717 10717 10718
10724 10724 10725 10726 10725 10725 10726 10726 10727 10727 10727 10725 10725 10724 10723 10721 10721 10720 10720 10721 10722 10722 10723 10724 10723 10724 10724 10724 10725 10726 10725 10721 10715 10711 10712 10714 10715 10714 10712 10711 10710 10709 10708 10706 10705 10704 10703 10702 10702 10701 10701 10700 10699 10699 10698 10698 10697 10697 10697 10697 10697 10697 10697 10697 10698 10698 10699 10700 10701 10702 10703 10705 10706 10707 10708 10709 10709 10710 10711 10712 10712 10713 10713 10714 10714
10721 10722 10723 10723 10722 10722 10722 10722 10723 10724 10724 10722 10721 10720 10719 10718 10718 10718 10718 10718 10718 10719 10719 10720 10720 10720 10721 10721 10722 10722 10722 10717 10710 10707 10709 10712 10712 10709 10708 10708 10707 10706 10706 10705 10704 10703 10702 10701 10700 10699 10699 10698 10697 10697 10696 10696 10695 10694 10694 10694 10694 10694 10694 10694 10695 10695 10696 10697 10698 10699 10700 10701 10702 10703 10704 10705 10706 10706 10707 10708 10708 10709 10710 10710 10711
10718 10719 10720 10720 10720 10719 10719 10719 10719 10720 10720 10719 10718 10716 10715 10715 10716 10716 10716 10716 10716 10715 10715 10716 10716 10716 10717 10718 10719 10719 10717 10712 10706 10706 10708 10709 10708 10706 10705 10705 10705 10704 10703 10703 10702 10701 10700 10699 10698 10698 10697 10696 10696 10695 10694 10693 10693 10692 10691 10691 10692 10691 10691 10691 10692 10693 10694 10695 10695 10696 10697 10698 10699 10700 10701 10702 10702 10703 10703 10704 10705 10705 10706 10707 10708
10713 10714 10715 10716 10716 10716 10715 10715 10715 10715 10716 10716 10715 10714 10713 10713 10713 10713 10713 10713 10713 10713 10713 10713 10712 10711 10712 10713 10714 10715 10713 10708 10705 10706 10707 10707 10705 10703 10703 10702 10702 10702 10701 10700 10699 10699 10698 10697 10696 10695 10694 10694 10693 10693 10692 10690 10690 10689 10689 10689 10689 10689 10688 10688 10689 10690 10691 10692 10692 10693 10694 10695 10696 10697 10698 10698 10699 10699 10700 10701 10701 10702 10703 10704 10704
10708 10709 10709 10710 10711 10712 10711 10711 10711 10711 10712 10712 10712 10711 10711 10711 10711 10711 10710 10709 10710 10710 10710 10710 10708 10707 10707 10709 10710 10710 10709 10706 10705 10705 10705 10704 10702 10701 10700 10699 10699 10699 10698 10697 10696 10696 10696 10695 10694 10693 10692 10691 10690 10690 10690 10688 10687 10686 10686 10687 10686 10686 10685 10684 10686 10687 10688 10689 10689 10690 10691 10692 10693 10694 10694 10695 10695 10696 10696 10697 10698 10699 10699 10700 10700
10704 10704 10704 10704 10706 10706 10707 10707 10707 10707 10707 10708 10708 10708 10708 10708 10709 10709 10709 10707 10707 10706 10706 10706 10705 10704 10704 10705 10706 10706 10706 10704 10703 10702 10702 10701 10699 10698 10697 10696 10696 10695 10694 10693 10693 10693 10693 10692 10691 10691 10690 10689 10688 10687 10687 10686 10685 10684 10684 10684 10684 10683 10682 10682 10683 10685 10686 10687 10687 10688 10689 10689 10690 10691 10691 10691 10691 10692 10693 10693 10694 10695 10695 10696 10696
10700 10700 10700 10700 10700 10701 10702 10703 10703 10703 10703 10703 10704 10705 10705 10705 10706 10707 10707 10706 10704 10704 10703 10703 10703 10702 10702 10702 10703 10703 10703 10702 10700 10699 10698 10697 10696 10695 10694 10693 10693 10692 10690 10689 10689 10689 10689 10688 10688 10687 10687 10686 10685 10684 10683 10682 10682 10681 10681 10681 10681 10680 10679 10680 10681 10682 10683 10684 10684 10685 10686 10686 10687 10687 10687 10687 10687 10688 10689 10689 10690 10691 10691 10691 10692
10696 10696 10696 10695 10695 10696 10697 10699 10699 10699 10699 10699 10700 10701 10701 10702 10702 10703 10704 10703 10702 10701 10700 10700 10699 10699 10699 10699 10700 10700 10700 10699 10697 10696 10695 10694 10692 10692 10691 10690 10689 10688 10686 10686 10686 10685 10685 10685 10684 10684 10683 10682 10681 10680 10679 10678 10678 10677 10677 10677 10677 10677 10677 10678 10678 10679 10680 10681 10681 10683 10683 10683 10683 10682 10682 10682 10683 10683 10684 10685 10685 10686 10686 10687 10688
10692 10692 10691 10691 10691 10692 10693 10694 10695 10695 10695 10696 10696 10697 10698 10698 10698 10699 10699 10699 10699 10699 10698 10697 10696 10696 10696 10696 10696 10697 10697 10696 10694 10692 10692 10691 10689 10688 10687 10687 10686 10684 10682 10682 10682 10681 10681 10681 10680 10680 10679 10678 10677 10676 10675 10674 10674 10673 10673 10672 10672 10672 10673 10674 10675 10675 10676 10677 10679 10679 10679 10678 10678 10678 10677 10677 10678 10679 10680 10680 10681 10681 10682 10683 10683
10687 10687 10686 10686 10687 10688 10688 10689 10690 10691 10691 10691 10692 10693 10694 10694 10694 10695 10695 10695 10695 10695 10694 10693 10693 10692 10692 10692 10692 10692 10693 10692 10690 10689 10688 10687 10686 10684 10684 10683 10681 10679 10679 10678 10678 10677 10677 10677 10677 10675 10674 10673 10673 10672 10671 10670 10670 10669 10669 10668 10668 10668 10669 10669 10671 10671 10672 10673 10674 10674 10673 10672 10673 10673 10672 10672 10673 10675 10676 10676 10676 10676 10677 10678 10678
10683 10683 10682 10681 10682 10683 10684 10685 10686 10686 10686 10686 10686 10687 10689 10690 10690 10690 10690 10690 10689 10689 10689 10689 10688 10688 10688 10688 10688 10688 10688 10687 10686 10685 10683 10682 10682 10681 10680 10679 10677 10675 10675 10674 10673 10673 10673 10673 10672 10671 10670 10669 10669 10668 10667 10666 10665 10665 10665 10664 10664 10664 10664 10665 10665 10666 10667 10668 10668 10669 10668 10668 10668 10668 10668 10668 10669 10670 10671 10670 10670 10671 10672 10673 10673
10680 10680 10679 10678 10678 10679 10680 10681 10681 10682 10681 10680 10681 10682 10683 10684 10685 10684 10684 10685 10684 10684 10684 10683 10684 10684 10683 10684 10684 10684 10684 10683 10683 10680 10678 10677 10677 10677 10676 10674 10672 10672 10671 10670 10670 10670 10669 10668 10667 10666 10666 10665 10664 10663 10663 10662 10661 10660 10660 10660 10660 10661 10661 10660 10661 10661 10661 10662 10663 10663 10663 10663 10664 10664 10664 10664 10664 10665 10665 10664 10664 10665 10667 10668 10668
10677 10677 10676 10675 10675 10675 10676 10677 10678 10678 10677 10676 10676 10677 10677 10679 10679 10679 10679 10680 10679 10679 10679 10679 10679 10680 10680 10680 10681 10681 10680 10680 10679 10677 10674 10672 10671 10672 10672 10671 10669 10668 10668 10667 10667 10666 10664 10663 10662 10661 10661 10661 10660 10659 10659 10658 10657 10656 10656 10656 10656 10656 10657 10656 10656 10656 10656 10658 10658 10657 10658 10658 10659 10660 10659 10660 10660 10660 10659 10658 10658 10660 10663 10663 10663
10674 10674 10674 10673 10672 10672 10673 10673 10674 10674 10673 10672 10672 10672 10673 10674 10675 10675 10675 10675 10675 10675 10675 10675 10675 10676 10676 10677 10677 10677 10677 10676 10676 10674 10672 10669 10668 10667 10667 10666 10665 10664 10663 10663 10662 10661 10659 10658 10657 10656 10656 10656 10656 10655 10654 10653 10652 10652 10651 10651 10651 10652 10652 10652 10651 10651 10651 10652 10652 10652 10653 10653 10654 10654 10655 10654 10654 10655 10655 10654 10653 10655 10657 10658 10658
10669 10669 10669 10670 10670 10669 10669 10669 10670 10670 10669 10668 10668 10668 10668 10670 10671 10670 10670 10670 10671 10671 10671 10671 10672 10673 10673 10674 10674 10673 10673 10672 10672 10670 10669 10667 10665 10663 10662 10661 10660 10660 10659 10658 10657 10656 10654 10653 10653 10651 10651 10651 10651 10650 10650 10649 10648 10647 10646 10646 10646 10646 10647 10647 10646 10646 10646 10646 10646 10647 10647 10648 10648 10649 10649 10649 10649 10649 10650 10650 10650 10651 10652 10652 10652
10665 10664 10664 10665 10666 10666 10665 10665 10665 10665 10665 10664 10665 10665 10664 10665 10666 10666 10666 10666 10666 10667 10667 10667 10668 10669 10670 10670 10670 10669 10668 10667 10667 10667 10666 10664 10662 10660 10657 10655 10654 10655 10654 10653 10652 10650 10649 10648 10648 10647 10646 10646 10645 10645 10644 10644 10643 10642 10642 10641 10641 10641 10641 10641 10641 10641 10641 10641 10641 10641 10642 10642 10643 10643 10644 10644 10644 10644 10645 10646 10646 10647 10647 10648 10647
10660 10660 10660 10661 10662 10662 10662 10661 10661 10661 10661 10660 10660 10660 10660 10661 10661 10662 10661 10661 10662 10663 10663 10663 10664 10665 10666 10666 10665 10664 10663 10663 10663 10662 10662 10661 10659 10656 10653 10650 10649 10649 10649 10647 10646 10645 10644 10644 10643 10643 10642 10641 10640 10640 10639 10639 10638 10637 10637 10636 10636 10636 10636 10636 10636 10635 10635 10635 10635 10635 10636 10636 10637 10638 10638 10639 10639 10639 10639 10640 10641 10641 10642 10642 10642
10656 10656 10656 10656 10657 10658 10658 10657 10657 10656 10656 10656 10655 10655 10656 10656 10657 10657 10657 10657 10657 10658 10659 10659 10660 10661 10661 10661 10660 10660 10659 10659 10659 10657 10657 10656 10654 10651 10649 10648 10646 10645 10644 10642 10641 10640 10639 10638 10638 10638 10637 10636 10635 10635 10634 10634 10633 10633 10632 10632 10631 10631 10631 10631 10630 10630 10630 10630 10629 10630 10630 10630 10631 10632 10633 10633 10633 10633 10633 10634 10635 10635 10636 10636 10637
10651 10652 10652 10652 10652 10653 10654 10653 10653 10652 10652 10652 10651 10650 10650 10652 10653 10653 10653 10653 10653 10653 10654 10655 10656 10657 10657 10656 10656 10655 10655 10655 10654 10653 10652 10651 10649 10646 10645 10644 10643 10641 10640 10639 10637 10635 10634 10634 10633 10633 10632 10631 10631 10630 10629 10629 10628 10628 10627 10627 10626 10626 10626 10625 10625 10625 10624 10624 10624 10623 10623 10624 10624 10625 10626 10627 10627 10627 10627 10627 10628 10628 10629 10629 10630
10645 10647 10648 10648 10647 10648 10649 10649 10648 10648 10648 10648 10647 10646 10646 10647 10648 10649 10649 10650 10649 10649 10650 10651 10652 10652 10652 10652 10651 10651 10650 10650 10649 10648 10648 10646 10643 10641 10641 10640 10638 10636 10635 10635 10633 10630 10629 10629 10629 10628 10627 10627 10626 10625 10624 10623 10623 10622 10622 10621 10621 10621 10621 10621 10620 10620 10619 10619 10618 10618 10617 10617 10617 10618 10619 10619 10620 10620 10620 10620 10620 10621 10621 10622 10622
10639 10641 10643 10643 10643 10643 10643 10644 10644 10644 10643 10643 10643 10643 10642 10642 10643 10643 10644 10645 10646 10646 10646 10647 10648 10648 10648 10647 10646 10646 10646 10645 10644 10643 10644 10642 10639 10636 10636 10635 10633 10631 10631 10631 10629 10626 10624 10624 10624 10623 10622 10622 10621 10620 10619 10618 10617 10617 10616 10616 10615 10615 10615 10615 10615 10615 10614 10614 10613 10613 10612 10612 10612 10612 10612 10612 10612 10613 10613 10613 10614 10614 10614 10614 10614
10633 10635 10637 10639 10638 10638 10638 10638 10640 10640 10639 10639 10639 10639 10638 10638 10638 10638 10638 10639 10640 10642 10642 10643 10643 10643 10643 10642 10642 10641 10641 10639 10637 10637 10638 10637 10635 10632 10632 10631 10628 10627 10627 10626 10625 10623 10621 10619 10619 10618 10617 10616 10615 10615 10613 10612 10612 10611 10610 10610 10610 10609 10609 10609 10609 10609 10609 10609 10608 10607 10607 10606 10606 10606 10606 10606 10606 10606 10606 10607 10607 10607 10607 10607 10607
10628 10630 10632 10633 10634 10633 10633 10633 10634 10635 10635 10635 10635 10635 10635 10635 10634 10633 10633 10633 10634 10635 10636 10637 10638 10638 10638 10638 10637 10637 10636 10633 10631 10630 10631 10631 10630 10628 10627 10626 10624 10622 10621 10620 10620 10619 10618 10616 10615 10613 10613 10611 10610 10609 10608 10607 10606 10606 10605 10604 10604 10603 10603 10603 10603 10603 10602 10602 10602 10602 10601 10601 10601 10600 10600 10600 10600 10600 10601 10601 10601 10601 10600 10600 10600
10623 10624 10626 10627 10628 10628 10628 10628 10629 10630 10630 10630 10631 10631 10631 10631 10630 10630 10629 10629 10629 10630 10630 10631 10632 10632 10632 10632 10632 10631 10630 10628 10626 10625 10624 10624 10623 10623 10623 10622 10620 10617 10616 10614 10613 10613 10613 10612 10611 10609 10608 10607 10605 10604 10603 10602 10601 10600 10600 10599 10598 10598 10597 10597 10596 10596 10596 10595 10595 10595 10595 10595 10595 10595 10594 10594 10594 10594 10595 10595 10594 10594 10594 10594 10593
10618 10619 10620 10621 10623 10623 10623 10623 10624 10624 10624 10624 10625 10625 10625 10625 10625 10625 10625 10624 10624 10624 10625 10625 10626 10626 10626 10626 10626 10625 10625 10623 10622 10620 10618 10616 10616 10616 10617 10617 10615 10613 10611 10609 10607 10607 10606 10606 10606 10605 10603 10602 10600 10598 10597 10596 10596 10595 10594 10593 10593 10592 10592 10591 10590 10589 10589 10588 10588 10588 10588 10588 10588 10588 10588 10588 10588 10588 10588 10588 10588 10588 10587 10587 10587
10614 10614 10615 10616 10617 10617 10618 10618 10618 10618 10618 10619 10619 10619 10619 10619 10619 10619 10619 10619 10619 10619 10619 10619 10620 10620 10620 10620 10620 10620 10619 10618 10617 10615 10613 10611 10610 10609 10609 10609 10609 10607 10605 10604 10602 10601 10600 10599 10599 10599 10598 10596 10595 10593 10591 10591 10590 10589 10588 10587 10587 10586 10586 10584 10583 10583 10582 10581 10581 10580 10580 10581 10581 10581 10580 10580 10581 10581 10581 10581 10581 10581 10580 10580 10580
10609 10610 10610 10610 10611 10612 10612 10612 10613 10613 10613 10613 10613 10613 10613 10613 10613 10613 10613 10613 10613 10612 10613 10613 10613 10613 10613 10614 10614 10614 10614 10613 10612 10610 10608 10607 10605 10604 10603 10602 10601 10600 10598 10597 10597 10596 10594 10592 10592 10592 10591 10590 10590 10589 10587 10585 10584 10584 10583 10582 10582 10581 10579 10578 10577 10576 10575 10574 10573 10573 10572 10573 10573 10572 10572 10572 10573 10573 10573 10573 10573 10573 10573 10573 10572
10604 10604 10604 10604 10605 10606 10606 10606 10607 10607 10607 10607 10607 10608 10608 10607 10607 10607 10607 10606 10606 10606 10607 10607 10606 10606 10606 10607 10607 10607 10607 10607 10605 10604 10603 10602 10601 10600 10599 10597 10595 10594 10592 10590 10590 10589 10587 10586 10586 10586 10585 10583 10583 10583 10582 10580 10579 10578 10577 10578 10577 10575 10573 10572 10571 10570 10568 10567 10566 10565 10564 10564 10564 10564 10564 10564 10564 10564 10565 10565 10565 10565 10565 10565 10565
10598 10598 10598 10598 10599 10599 10600 10600 10600 10600 10601 10601 10602 10602 10602 10601 10601 10601 10601 10600 10600 10600 10600 10600 10600 10599 10599 10600 10600 10600 10600 10599 10598 10598 10597 10596 10594 10594 10593 10592 10590 10589 10588 10586 10584 10582 10580 10580 10580 10580 10579 10578 10577 10575 10575 10575 10574 10573 10572 10572 10571 10569 10567 10566 10564 10563 10561 10560 10559 10557 10556 10556 10556 10556 10555 10555 10555 10555 10556 10556 10556 10556 10556 10556 10556
10591 10592 10592 10592 10592 10593 10594 10594 10594 10594 10594 10595 10595 10595 10595 10595 10595 10595 10595 10594 10594 10594 10594 10593 10593 10592 10592 10592 10592 10592 10592 10591 10590 10590 10589 10588 10588 10587 10586 10585 10584 10584 10583 10582 10580 10577 10575 10574 10574 10573 10572 10572 10571 10569 10568 10568 10567 10566 10567 10566 10564 10562 10561 10560 10558 10556 10554 10553 10551 10550 10549 10548 10548 10548 10547 10547 10547 10547 10547 10547 10547 10547 10548 10548 10548
10585 10585 10585 10586 10586 10587 10588 10588 10588 10588 10588 10588 10588 10588 10588 10587 10588 10588 10587 10587 10587 10587 10586 10586 10585 10585 10584 10583 10584 10584 10584 10583 10582 10582 10581 10580 10580 10580 10579 10577 10576 10576 10577 10577 10575 10572 10570 10569 10569 10567 10565 10565 10565 10563 10562 10561 10559 10558 10559 10559 10557 10555 10554 10553 10551 10549 10547 10546 10545 10543 10542 10541 10540 10540 10540 10539 10539 10538 10538 10538 10538 10539 10539 10540 10540
10579 10579 10580 10580 10580 10581 10582 10582 10582 10582 10582 10582 10583 10582 10582 10581 10581 10581 10580 10580 10580 10579 10579 10578 10577 10577 10576 10575 10575 10575 10575 10574 10574 10573 10572 10571 10571 10573 10573 10571 10568 10567 10568 10569 10569 10566 10564 10563 10563 10562 10560 10558 10557 10557 10556 10554 10553 10551 10551 10550 10549 10548 10547 10546 10544 10542 10541 10539 10538 10537 10536 10534 10533 10533 10532 10532 10531 10530 10530 10531 10531 10531 10531 10531 10531
10573 10573 10574 10574 10574 10575 10575 10576 10576 10576 10576 10576 10576 10576 10576 10575 10575 10575 10574 10573 10573 10573 10572 10571 10570 10570 10569 10567 10567 10566 10566 10566 10565 10565 10563 10561 10561 10563 10564 10564 10562 10560 10559 10560 10560 10560 10558 10557 10557 10557 10555 10552 10550 10550 10548 10548 10547 10546 10544 10542 10541 10540 10540 10539 10537 10535 10534 10533 10532 10531 10530 10529 10527 10527 10527 10526 10525 10524 10523 10523 10523 10523 10523 10523 10523
10567 10567 10568 10568 10568 10569 10569 10569 10569 10569 10569 10569 10569 10569 10569 10568 10568 10567 10567 10566 10566 10566 10565 10564 10563 10562 10561 10560 10558 10557 10557 10557 10556 10556 10555 10553 10551 10552 10553 10555 10555 10555 10554 10552 10552 10551 10551 10550 10550 10550 10549 10547 10544 10542 10541 10541 10540 10539 10539 10537 10535 10533 10532 10531 10529 10527 10526 10524 10523 10523 10522 10521 10520 10520 10520 10519 10519 10518 10517 10517 10517 10516 10515 10515 10515
10561 10562 10562 10562 10562 10563 10563 10563 10563 10562 10562 10562 10561 10561 10561 10561 10561 10560 10559 10558 10558 10558 10558 10557 10556 10554 10553 10552 10551 10549 10548 10547 10547 10547 10548 10546 10544 10543 10543 10544 10545 10547 10548 10547 10545 10543 10542 10542 10542 10541 10542 10541 10539 10538 10536 10534 10533 10532 10531 10531 10529 10527 10526 10525 10523 10521 10520 10518 10516 10514 10514 10513 10511 10511 10511 10511 10510 10510 10509 10509 10510 10509 10509 10508 10507
10556 10556 10557 10557 10557 10557 10557 10557 10556 10556 10555 10555 10554 10554 10554 10554 10553 10553 10552 10551 10551 10551 10550 10549 10548 10547 10546 10545 10543 10542 10541 10540 10539 10539 10539 10539 10538 10536 10535 10535 10536 10536 10538 10540 10540 10538 10535 10534 10534 10533 10533 10533 10533 10532 10532 10530 10527 10524 10523 10523 10522 10520 10519 10518 10516 10515 10514 10513 10510 10508 10507 10507 10505 10503 10502 10502 10502 10501 10501 10501 10501 10501 10500 10499 10499
10551 10551 10551 10551 10551 10551 10550 10550 10549 10549 10548 10547 10547 10547 10547 10546 10545 10545 10544 10544 10544 10543 10542 10541 10540 10539 10539 10537 10536 10535 10534 10533 10532 10531 10531 10532 10532 10530 10529 10528 10528 10527 10528 10530 10532 10533 10531 10529 10528 10526 10526 10525 10525 10524 10524 10524 10521 10518 10516 10515 10514 10513 10511 10510 10509 10508 10508 10507 10504 10501 10500 10501 10500 10497 10495 10494 10494 10494 10494 10494 10493 10492 10490 10489 10489
10543 10544 10545 10545 10545 10545 10544 10543 10542 10541 10541 10540 10539 10539 10539 10538 10537 10537 10537 10537 10537 10536 10535 10534 10532 10532 10531 10530 10528 10527 10526 10526 10525 10524 10523 10523 10523 10523 10523 10522 10521 10520 10520 10520 10521 10524 10525 10524 10522 10520 10519 10519 10518 10517 10516 10516 10514 10513 10511 10509 10507 10506 10504 10503 10502 10501 10502 10501 10498 10495 10493 10493 10493 10492 10489 10487 10485 10485 10486 10486 10486 10484 10482 10480 10479
10535 10537 10537 10538 10538 10538 10537 10536 10535 10533 10532 10532 10531 10531 10530 10529 10529 10529 10529 10528 10528 10528 10527 10526 10526 10525 10523 10522 10520 10519 10518 10517 10516 10515 10514 10513 10513 10514 10515 10515 10514 10513 10513 10513 10513 10514 10515 10517 10516 10514 10512 10512 10512 10511 10510 10508 10506 10505 10504 10502 10500 10498 10497 10496 10494 10493 10493 10493 10492 10490 10487 10485 10485 10484 10482 10479 10477 10477 10477 10477 10476 10475 10473 10472 10471
10527 10528 10528 10529 10530 10529 10529 10528 10527 10525 10524 10523 10523 10522 10522 10522 10521 10521 10520 10519 10519 10519 10519 10518 10518 10516 10515 10513 10512 10510 10510 10509 10508 10507 10506 10504 10504 10504 10505 10505 10505 10505 10505 10506 10506 10506 10506 10507 10508 10507 10506 10505 10504 10504 10503 10501 10499 10497 10495 10494 10492 10491 10489 10488 10487 10485 10484 10484 10484 10483 10481 10479 10477 10475 10473 10471 10469 10468 10468 10467 10466 10465 10464 10463 10462
10520 10520 10520 10520 10520 10520 10520 10519 10518 10517 10516 10515 10515 10514 10513 10513 10513 10513 10513 10512 10511 10511 10510 10510 10509 10507 10506 10504 10503 10503 10502 10501 10500 10499 10498 10496 10495 10494 10493 10494 10495 10496 10496 10497 10497 10497 10497 10497 10498 10498 10497 10496 10496 10495 10495 10493 10492 10490 10488 10486 10484 10483 10482 10480 10479 10478 10476 10476 10475 10475 10473 10472 10470 10467 10465 10462 10460 10458 10458 10457 10455 10454 10454 10453 10452
10511 10511 10511 10511 10511 10510 10510 10510 10509 10508 10507 10507 10506 10505 10504 10504 10504 10504 10504 10504 10504 10503 10502 10502 10501 10499 10498 10497 10497 10496 10495 10494 10493 10491 10490 10488 10485 10484 10483 10483 10484 10485 10485 10485 10486 10486 10487 10487 10486 10487 10487 10486 10486 10486 10485 10484 10483 10482 10480 10478 10476 10475 10474 10472 10471 10469 10468 10468 10467 10466 10465 10464 10462 10459 10456 10454 10451 10449 10448 10446 10445 10444 10444 10443 10442
10502 10502 10502 10502 10502 10502 10502 10501 10501 10500 10500 10499 10498 10498 10497 10496 10495 10496 10495 10495 10495 10493 10493 10492 10491 10491 10491 10491 10491 10490 10488 10488 10486 10484 10484 10484 10479 10476 10475 10475 10476 10475 10474 10474 10475 10476 10477 10477 10477 10477 10477 10476 10476 10475 10475 10474 10474 10473 10472 10470 10469 10468 10466 10464 10462 10460 10459 10460 10460 10457 10457 10456 10454 10452 10449 10445 10442 10440 10438 10436 10435 10434 10434 10433 10432
10493 10493 10493 10493 10493 10493 10493 10493 10493 10492 10492 10491 10491 10490 10490 10489 10488 10488 10488 10488 10486 10484 10482 10481 10481 10481 10481 10482 10485 10484 10480 10479 10478 10477 10478 10478 10475 10472 10469 10468 10468 10467 10465 10465 10466 10467 10467 10468 10469 10468 10468 10468 10467 10466 10465 10465 10464 10463 10463 10462 10461 10460 10458 10456 10453 10451 10451 10452 10452 10449 10449 10448 10446 10444 10441 10437 10433 10431 10428 10426 10424 10423 10424 10424 10423
10484 10484 10484 10484 10485 10485 10484 10484 10485 10485 10484 10483 10482 10482 10481 10481 10481 10480 10480 10480 10480 10477 10473 10472 10472 10472 10471 10472 10476 10476 10471 10468 10469 10469 10469 10469 10469 10467 10464 10461 10459 10458 10459 10458 10457 10457 10458 10459 10460 10461 10460 10459 10459 10458 10457 10456 10456 10455 10455 10454 10453 10451 10450 10448 10446 10444 10443 10444 10443 10441 10441 10440 10437 10435 10433 10429 10426 10422 10419 10417 10414 10413 10413 10414 10413
10475 10474 10474 10475 10475 10475 10475 10475 10475 10475 10475 10473 10472 10472 10471 10471 10471 10471 10471 10471 10470 10468 10465 10464 10463 10463 10463 10462 10463 10463 10461 10459 10459 10460 10460 10460 10459 10457 10456 10454 10451 10449 10450 10450 10448 10448 10449 10450 10452 10452 10451 10451 10450 10449 10448 10448 10448 10447 10446 10445 10444 10442 10441 10440 10439 10437 10436 10435 10434 10432 10432 10431 10428 10426 10424 10422 10419 10414 10410 10407 10404 10403 10403 10403 10401